DateTimeUTC,F1_A11,F1_S11,BsB_S11,BsG_S11,BsR_S11,BbsB_S11,BbsG_S11,BbsR_S11,BaB_A11,BaG_A11,BaR_A11,Tu_S11,T_S11,Uu_S11,U_S11,P_S11,T1_A11
2021-08-07T11:00:00Z,00000200,20000000,,,,,,,-000.41,-000.09,-000.05,17.7,24.5,05.1,03.3,0665.2,31.0
2021-08-07T11:01:00Z,00000200,20000000,,,,,,,0000.14,-000.04,-000.13,17.7,24.5,05.0,03.3,0665.2,31.0
2021-08-07T11:02:00Z,00000200,20000000,,,,,,,-000.27,-000.52,0000.02,17.7,24.5,05.0,03.3,0665.2,31.0
2021-08-07T11:03:00Z,00000200,60000000,,,,,,,0000.35,0000.82,0000.62,17.7,24.5,05.0,03.3,0665.2,31.0
2021-08-07T11:04:00Z,00000200,40000000,0002.35,0001.57,0001.21,0000.26,-000.13,0000.65,0000.57,0000.65,0000.03,17.8,24.3,05.2,03.5,0666.1,31.0
2021-08-07T11:05:00Z,00000200,00000000,0002.15,0001.33,0001.04,-000.06,0000.13,0000.02,0000.18,0000.07,0000.21,17.8,24.3,05.2,03.5,0666.2,31.0
2021-08-07T11:06:00Z,00000200,00000000,0001.56,0001.49,0000.78,0000.68,0000.41,0000.33,0000.38,0000.12,0000.10,17.8,24.3,05.2,03.5,0666.2,30.9
2021-08-07T11:07:00Z,00000200,00000000,0002.40,0001.40,0001.02,0001.01,-000.15,0000.44,0000.07,-000.14,0000.11,17.8,24.3,05.1,03.4,0666.2,30.9
2021-08-07T11:08:00Z,00000200,00000000,0002.37,0001.21,0000.87,0000.49,0000.00,0000.23,0000.56,0000.28,0000.11,17.8,24.3,05.0,03.4,0666.2,31.0
2021-08-07T11:09:00Z,00000200,00000000,0002.84,0001.29,0000.64,0001.28,0000.60,-000.08,0001.05,0000.97,0000.69,17.8,24.3,05.1,03.4,0666.2,31.0
2021-08-07T11:10:00Z,00000200,00000000,0002.03,0001.55,0001.11,0000.28,0000.36,0000.14,-000.44,0000.01,-000.12,17.8,24.3,05.0,03.4,0666.2,30.9
2021-08-07T11:11:00Z,00000200,00000000,0002.65,0001.24,0001.06,0000.59,0000.09,0000.26,0000.53,0000.68,0000.54,17.8,24.3,04.9,03.3,0666.1,31.0
2021-08-07T11:12:00Z,00000200,00000000,0002.69,0001.09,0000.90,0000.49,0000.17,0000.15,0000.40,-000.01,0000.02,17.8,24.3,04.9,03.3,0666.1,31.0
2021-08-07T11:13:00Z,00000200,00000000,0001.35,0001.34,0000.56,0000.52,0000.10,0000.49,0000.72,0000.61,0000.71,17.8,24.2,04.9,03.3,0666.2,30.9
2021-08-07T11:14:00Z,00000200,00000000,0002.37,0001.42,0001.12,0000.56,0000.13,-000.07,0000.46,0000.55,0000.13,17.8,24.2,04.9,03.3,0666.2,30.9
2021-08-07T11:15:00Z,00000200,00000000,0002.35,0001.45,0000.81,0000.53,0000.51,0000.05,0000.47,0000.34,0000.62,17.8,24.2,05.0,03.4,0666.1,30.9
2021-08-07T11:16:00Z,00000200,00000000,0002.76,0001.42,0001.22,0000.11,-000.05,0000.34,0000.36,0000.41,0000.04,17.8,24.2,04.9,03.3,0666.1,30.9
2021-08-07T11:17:00Z,00000200,00000000,0002.62,0001.52,0000.76,0000.32,0000.31,0000.07,0000.04,-000.01,0000.12,17.8,24.2,04.8,03.3,0666.1,30.9
2021-08-07T11:18:00Z,00000200,00000000,0003.01,0001.27,0000.96,0000.64,-000.02,0000.18,0000.07,0000.26,0000.03,17.8,24.2,04.7,03.2,0666.2,30.9
2021-08-07T11:19:00Z,00000200,00000000,0002.08,0001.40,0000.88,0001.07,0000.18,0000.45,0000.52,0000.28,0000.27,17.8,24.2,04.7,03.2,0666.2,30.9
2021-08-07T11:20:00Z,00000200,00000000,0003.04,0001.46,0000.61,0001.21,0000.21,0000.25,0000.43,0000.14,0000.09,17.8,24.2,04.7,03.2,0666.1,30.9
2021-08-07T11:21:00Z,00000200,00000000,0002.23,0001.50,0001.21,0000.27,-000.22,0000.26,0000.21,0000.42,0000.25,17.8,24.2,04.7,03.2,0666.1,30.9
2021-08-07T11:22:00Z,00000200,00000000,0001.95,0001.37,0000.76,0000.61,0000.25,0000.37,0000.85,0000.56,0000.74,17.8,24.3,04.6,03.1,0666.1,30.9
2021-08-07T11:23:00Z,00000200,00000000,0002.13,0001.50,0001.28,0000.65,0000.19,0000.38,0000.57,0000.72,0000.17,17.9,24.2,04.7,03.2,0666.2,30.9
2021-08-07T11:24:00Z,00000200,00000000,0002.73,0001.57,0000.81,0000.36,0000.10,0000.28,0000.54,0000.67,0000.30,17.9,24.2,04.7,03.2,0666.2,30.9
2021-08-07T11:25:00Z,00000200,00000000,0002.69,0001.60,0001.04,0001.13,0000.43,0000.47,-000.30,-000.48,0000.03,18.0,24.3,04.4,03.0,0666.2,31.0
2021-08-07T11:26:00Z,00000200,00000000,0002.21,0001.26,0000.73,0000.47,0000.25,0000.23,0000.57,0000.27,0000.25,18.1,24.3,04.4,03.0,0666.2,31.0
2021-08-07T11:27:00Z,00000200,00000000,0002.47,0001.36,0000.94,0000.32,0000.28,0000.24,0000.02,0000.42,-000.03,18.1,24.4,04.3,02.9,0666.2,31.0
2021-08-07T11:28:00Z,00000200,00000000,0002.49,0001.55,0000.87,0001.20,0000.16,0000.40,0000.27,-000.03,0000.45,18.1,24.4,04.1,02.8,0666.2,31.0
2021-08-07T11:29:00Z,00000200,00000000,0002.76,0001.29,0000.93,0000.20,0000.23,-000.00,0000.60,0000.63,0000.00,18.2,24.4,04.2,02.9,0666.2,31.0
2021-08-07T11:30:00Z,00000200,00000000,0002.51,0001.46,0001.42,0000.72,0000.07,0000.35,0000.31,0000.32,0000.24,18.2,24.4,04.2,02.9,0666.2,31.0
2021-08-07T11:31:00Z,00000200,00000000,0002.62,0001.37,0000.66,0000.02,0000.07,0000.06,0000.31,0000.07,0000.56,18.2,24.4,04.2,02.9,0666.2,31.0
2021-08-07T11:32:00Z,00000200,00000000,0002.69,0001.49,0001.10,0000.61,0000.11,0000.04,0000.53,0000.11,0000.11,18.2,24.4,04.1,02.8,0666.2,31.0
2021-08-07T11:33:00Z,00000200,00000000,0002.29,0001.29,0001.32,0000.85,0000.12,0000.14,0000.57,0000.98,0000.17,18.2,24.4,04.2,02.8,0666.2,31.0
2021-08-07T11:34:00Z,00000200,00000000,0002.40,0001.30,0000.96,0001.12,0000.47,-000.11,0000.11,0000.22,0000.32,18.2,24.4,04.2,02.8,0666.2,31.0
2021-08-07T11:35:00Z,00000200,00000000,0001.70,0001.52,0000.71,0000.42,0000.48,0000.13,0000.57,0000.48,0000.38,18.2,24.4,04.3,02.9,0666.2,31.0
2021-08-07T11:36:00Z,00000200,00000000,0001.90,0001.94,0000.98,0000.88,0000.34,0000.23,0000.34,0000.14,0000.56,18.2,24.4,04.3,02.9,0666.2,31.0
2021-08-07T11:37:00Z,00000200,00000000,0001.58,0001.53,0001.31,0000.78,-000.15,0000.43,0000.83,0000.77,0000.10,18.2,24.4,04.2,02.9,0666.2,31.0
2021-08-07T11:38:00Z,00000200,00000000,0002.04,0001.74,0001.08,0000.66,0000.42,0000.14,0000.58,0000.70,0000.72,18.2,24.4,04.2,02.9,0666.2,31.0
2021-08-07T11:39:00Z,00000200,00000000,0002.31,0001.48,0000.83,0000.33,0000.30,0000.23,0000.56,0000.46,0000.12,18.2,24.4,04.1,02.8,0666.2,31.0
2021-08-07T11:40:00Z,00000200,00000000,0002.75,0001.16,0001.13,0000.56,0000.22,0000.14,0000.35,0000.26,0000.53,18.3,24.5,04.1,02.8,0666.2,31.0
2021-08-07T11:41:00Z,00000200,00000000,0002.65,0001.48,0001.10,0000.17,-000.15,-000.04,0000.33,0000.54,0000.37,18.3,24.5,04.2,02.9,0666.3,31.0
2021-08-07T11:42:00Z,00000200,00000000,0002.39,0001.45,0000.84,0000.89,-000.18,0000.17,0000.27,-000.05,-000.21,18.3,24.5,04.1,02.8,0666.3,31.0
2021-08-07T11:43:00Z,00000200,00000000,0002.48,0001.48,0000.92,0000.68,0000.38,0000.08,0000.28,0000.67,0000.84,18.4,24.5,04.1,02.8,0666.3,31.0
2021-08-07T11:44:00Z,00000200,00000000,0002.35,0001.64,0000.83,0000.35,-000.19,0000.17,0000.29,0000.39,-000.17,18.4,24.5,04.0,02.8,0666.3,31.0
2021-08-07T11:45:00Z,00000200,00000000,0002.11,0001.94,0000.99,0000.83,0000.25,0000.18,0000.48,0000.29,0000.33,18.4,24.6,04.2,02.9,0666.3,31.0
2021-08-07T11:46:00Z,00000200,00000000,0002.85,0001.57,0000.78,0000.72,0000.17,0000.35,0000.69,0000.21,0000.52,18.4,24.6,04.1,02.8,0666.2,31.0
2021-08-07T11:47:00Z,00000200,00000000,0002.76,0001.46,0001.15,0000.49,0000.08,0000.24,0000.69,0000.95,0000.51,18.4,24.6,04.2,02.9,0666.2,31.0
2021-08-07T11:48:00Z,00000200,00000000,0002.75,0001.75,0001.02,0000.61,0000.28,0000.19,0000.53,0000.61,0000.29,18.4,24.6,04.2,02.9,0666.3,31.0
2021-08-07T11:49:00Z,00000200,00000000,0002.68,0001.45,0001.10,-000.15,0000.25,0000.13,0000.53,0000.19,0000.20,18.4,24.6,04.2,02.9,0666.3,31.0
2021-08-07T11:50:00Z,00000200,00000000,0002.59,0001.81,0000.78,0001.18,0000.24,0000.28,0000.87,0000.88,0000.72,18.4,24.6,04.1,02.8,0666.3,31.0
2021-08-07T11:51:00Z,00000200,00000000,0002.47,0001.90,0001.09,0000.50,0000.17,0000.53,0000.29,0000.18,0000.29,18.4,24.6,04.1,02.8,0666.3,31.0
2021-08-07T11:52:00Z,00000200,00000000,0002.54,0001.61,0001.18,0000.51,0000.14,0000.19,0000.63,0000.75,0000.44,18.4,24.6,04.1,02.8,0666.3,31.0
2021-08-07T11:53:00Z,00000200,00000000,0002.86,0001.54,0000.90,0000.78,0000.01,0000.17,0000.02,0000.15,0000.06,18.4,24.6,04.0,02.8,0666.3,31.0
2021-08-07T11:54:00Z,00000200,00000000,0002.44,0001.60,0000.98,0000.56,-000.01,0000.43,0000.45,0000.32,0000.47,18.4,24.6,04.1,02.8,0666.3,31.0
2021-08-07T11:55:00Z,00000200,00000000,0002.93,0001.53,0001.10,0000.96,0000.36,0000.29,0000.59,0000.90,0000.41,18.5,24.6,04.0,02.7,0666.3,31.0
2021-08-07T11:56:00Z,00000200,00000000,0002.01,0001.22,0000.95,0000.27,0000.38,0000.20,0000.72,0000.23,0000.47,18.5,24.6,04.0,02.8,0666.3,31.0
2021-08-07T11:57:00Z,00000200,40000000,,,,,,,0000.65,0000.99,0000.68,18.5,24.7,04.4,03.0,0666.3,31.0
2021-08-07T11:58:00Z,00000200,60000000,,,,,,,-000.08,-000.54,-000.79,18.3,24.8,04.2,02.8,0665.3,31.0
2021-08-07T11:59:00Z,00000200,20000000,,,,,,,-000.23,-000.45,0000.40,18.3,24.9,03.9,02.6,0665.3,31.0
